This is the latest recevied weather packets stored in our database for station/object KC4JIR. If no packets are shown the sender has not sent any weather packets the latest 10 day(s).
| Time | Temp. | Humidity | Pressure | Rain* | Wind** | Luminosity | Snow |
|---|---|---|---|---|---|---|---|
| 1777917693 | 25.56° C | 34% | 1014.5 hPa | 0 mm | - | 685 W/m² | - |
| 1777917389 | 25° C | 35% | 1014.6 hPa | 0 mm | - | 724 W/m² | - |
| 1777917086 | 25° C | 35% | 1014.9 hPa | 0 mm | - | 354 W/m² | - |
| 1777916784 | 25° C | 36% | 1014.9 hPa | 0 mm | - | 749 W/m² | - |
| 1777916480 | 25° C | 34% | 1014.9 hPa | 0 mm | - | 765 W/m² | - |
| 1777916178 | 25.56° C | 35% | 1015 hPa | 0 mm | - | 547 W/m² | - |
| 1777915875 | 25.56° C | 35% | 1014.9 hPa | 0 mm | - | 745 W/m² | - |
| 1777915571 | 25.56° C | 34% | 1015 hPa | 0 mm | - | 753 W/m² | - |
| 1777915268 | 25.56° C | 40% | 1015.1 hPa | 0 mm | - | 668 W/m² | - |
| 1777914964 | 24.44° C | 36% | 1014.9 hPa | 0 mm | - | 631 W/m² | - |
| 1777914662 | 24.44° C | 36% | 1014.9 hPa | 0 mm | - | 796 W/m² | - |
| 1777914357 | 24.44° C | 36% | 1015.1 hPa | 0 mm | - | 809 W/m² | - |
| 1777914055 | 24.44° C | 36% | 1015.2 hPa | 0 mm | - | 809 W/m² | - |
| 1777913751 | 23.89° C | 43% | 1015.2 hPa | 0 mm | - | 790 W/m² | - |
| 1777913448 | 23.89° C | 38% | 1015.1 hPa | 0 mm | - | 706 W/m² | - |
| 1777913144 | 24.44° C | 37% | 1015.1 hPa | 0 mm | - | 680 W/m² | - |
| 1777912841 | 23.89° C | 44% | 1015.3 hPa | 0 mm | - | 741 W/m² | - |
| 1777912537 | 23.89° C | 37% | 1015.2 hPa | 0 mm | - | 748 W/m² | - |
| 1777912234 | 23.89° C | 38% | 1015.5 hPa | 0 mm | - | 731 W/m² | - |
| 1777911930 | 22.78° C | 46% | 1015.4 hPa | 0 mm | - | 753 W/m² | - |
| 1777911626 | 22.78° C | 38% | 1015.6 hPa | 0 mm | - | 696 W/m² | - |
| 1777911322 | 22.78° C | 39% | 1015.7 hPa | 0 mm | - | 653 W/m² | - |
| 1777911020 | 23.33° C | 39% | 1015.9 hPa | 0 mm | - | 707 W/m² | - |
| 1777910718 | 23.89° C | 37% | 1015.9 hPa | 0 mm | - | 856 W/m² | - |
| 1777910414 | 22.78° C | 41% | 1016.1 hPa | 0 mm | - | 856 W/m² | - |
* Rain latest hour (hover to see other rain measurements)
** Current wind speed in m/s (hover to see current wind gust speed)